Regional Weather Roundup
Issued by NWS

Home | Current Version | Previous Version | Graphics & Text | Print | Product List | Glossary On
Versions: 1 2 3 4 5 6 7 8 9 10 11 12 13 14 15 16 17 18 19 20 21 22 23 24 25 26 27 28 29 30 31 32 33 34 35 36 37 38 39 40 41 42 43 44 45 46 47 48 49 50
448
ASUS43 KLOT 232309
RWRIL

ILLINOIS REGIONAL WEATHER ROUNDUP
NATIONAL WEATHER SERVICE CHICAGO/ROMEOVILLE IL
600 PM CDT TUE MAY 23 2017

NOTE: "FAIR" INDICATES FEW OR NO CLOUDS BELOW 12,000 FEET WITH NO
SIGNIFICANT WEATHER AND/OR OBSTRUCTIONS TO VISIBILITY.

* THESE STATIONS ARE NOT UNDER NWS QUALITY CONTROL. THEY ALSO MAY NOT
  REPORT WEATHER SUCH AS PRECIPITATION OR FOG.

ILZ001-002-007-009-015-016-024-240000-
NORTHWEST ILLINOIS

CITY           SKY/WX    TMP DP  RH WIND       PRES   REMARKS
MOLINE         MOSUNNY   64  48  56 NW6       29.69F
STERLING*      CLOUDY    58  53  84 E3        29.71F
SAVANNA*       MOSUNNY   62  49  63 CALM      29.70F
$$

ILZ003-004-008-010-011-017-018-240000-
NORTH CENTRAL ILLINOIS

CITY           SKY/WX    TMP DP  RH WIND       PRES   REMARKS
ROCKFORD       LGT RAIN  58  54  86 CALM      29.72F
FREEPORT*      CLOUDY    57  52  84 CALM      29.72S
ROCHELLE*      LGT RAIN  56  53  91 CALM      29.72S
DE KALB*       CLOUDY    55  54  95 NW5       29.72S
PERU*          CLOUDY    57  53  86 NW6       29.72S
$$

ILZ005-006-012>014-019>023-240000-
NORTHEAST ILLINOIS

CITY           SKY/WX    TMP DP  RH WIND       PRES   REMARKS
CHICAGO-OHARE  LGT RAIN  59  55  87 SE10      29.70F FOG
CHICAGO-MIDWAY CLOUDY    58  55  90 NE5       29.70F
AURORA         LGT RAIN  59  57  93 NW10      29.71F
LANSING*       RAIN      57  56  95 NW6       29.71F
JOLIET*        LGT RAIN  60  57  90 SE5       29.70F
WAUKEGAN       LGT RAIN  56  54  93 SE7       29.71F FOG
DUPAGE AIRPORT RAIN      58  58 100 CALM      29.70F FOG
KANKAKEE*      CLOUDY    58  53  85 CALM      29.70F
WHEELING       LGT RAIN  57  57 100 E8        29.72F
MORRIS*        RAIN      59  57  91 CALM      29.69F
ROMEOVILLE*    CLOUDY    58  57  97 SE8       29.70F
NORTHERLY ISL    N/A     57  53  86 N3          N/A
$$

LMZ740>746-240000-
SOUTHERN LAKE MICHIGAN

STATION/POSITION SKY/WX   TEMP    WIND        PRES    VSBY  WAVE
                          AIR SEA DIR/SP/G                  HT/PER
                          (F)     (DEG/KT/KT) (MB)    (MI)  (FT/S)
SOUTHERN BUOY              48 45  110/  8/  8 1007.2          0
WILMETTE HARBOR            53 53                N/A           1
HARRISON CRIB              56     350/  2/  3   N/A
BURNHAM HARBOR             56     340/  2/  7   N/A
CALUMET HARBOR             56     270/  3/  5 1006.4F
BURNS HARBOR               56      50/  4/  7 1006.8S
MICHIGAN CITY              62      90/  4/  5   N/A
MICHIGAN CITY 6N           54 54   30/  6/  6   N/A           1
ST. JOSEPH                 60 56   90/  6/  8 1005.8          0
$$

ILZ025>027-034>036-040-047-049-050-058-095>099-240000-
WEST-CENTRAL ILLINOIS

CITY           SKY/WX    TMP DP  RH WIND       PRES   REMARKS
QUINCY         MOSUNNY   64  52  64 NW5       29.71F
GALESBURG*     PTSUNNY   64  49  58 NW9       29.69F
MACOMB*        CLOUDY    64  52  66 W6        29.73S
JACKSONVILLE*  CLOUDY    59  56  89 W7        29.72F
PITTSFIELD*    CLOUDY    64  54  69 NW7       29.73S
$$

ILZ028>032-037-038-041>044-048-051>054-059>061-240000-
CENTRAL ILLINOIS

CITY           SKY/WX    TMP DP  RH WIND       PRES   REMARKS
PONTIAC        RAIN      61  60  97 N3        29.71S
BLOOMINGTON    RAIN      60  56  86 W6        29.72S
DECATUR        LGT RAIN  60  57  89 W7        29.69F FOG
PEORIA         CLOUDY    60  57  89 CALM      29.71F
LACON*         CLOUDY    58  56  93 CALM      29.70F
LINCOLN*       CLOUDY    60  57  91 W5        29.71F
SPRINGFIELD    CLOUDY    58  55  90 NW7       29.72S
TAYLORVILLE    CLOUDY    62  59  89 NW8       29.70S
$$

ILZ033-039-045-046-055>057-062-063-240000-
EAST-CENTRAL ILLINOIS

CITY           SKY/WX    TMP DP  RH WIND       PRES   REMARKS
CHAMPAIGN      CLOUDY    66  55  67 NW8       29.68F
RANTOUL*       CLOUDY    65  57  74 NW6       29.68F
MATTOON        CLOUDY    67  55  65 SE3       29.66F
PARIS*         PTSUNNY   70  54  57 CALM      29.67F
$$

ILZ079-100>102-240000-
SOUTHWEST ILLINOIS

CITY           SKY/WX    TMP DP  RH WIND       PRES   REMARKS
ALTON          CLOUDY    59  55  88 NW8       29.72S
BELLEVILLE     DRIZZLE   63  59  88 W3        29.71S
CAHOKIA*       LGT RAIN  64  55  72 NW16      29.70F
SPARTA*        CLOUDY    66  58  75 NW7       29.70F
$$

ILZ064>066-069>071-074>076-080>082-084>086-088>090-092>094-240000-
SOUTH-CENTRAL ILLINOIS

CITY           SKY/WX    TMP DP  RH WIND       PRES   REMARKS
CARBONDALE     CLOUDY    66  60  81 NW14      29.68S
CAIRO*         CLOUDY    71  53  52 W6        29.67S
EFFINGHAM*     CLOUDY    68  58  70 W3        29.68F
MARION         PTSUNNY   72  48  43 SW5       29.68F
MT. VERNON       N/A     68  57  68 VRB5      29.67F
CENTRALIA*     PTSUNNY   67  58  72 NW6       29.67F
SALEM*         CLOUDY    67  58  73 NW3       29.68S
METROPOLIS*    CLOUDY    73  51  47 CALM      29.67F
$$

ILZ067-068-072-073-078-083-087-091-240000-
SOUTHEAST ILLINOIS

CITY           SKY/WX    TMP DP  RH WIND       PRES   REMARKS
LAWRENCEVILLE  PTSUNNY   72  46  39 W7        29.66F
FLORA*         CLOUDY    72  53  52 SW3       29.67F
FAIRFIELD*     CLOUDY    70  52  52 SW3       29.66F
HARRISBURG*    CLOUDY    70  56  61 CALM      29.67F
ROBINSON*      CLOUDY    72  47  42 CALM      29.67F
CARMI*         CLOUDY    72  51  48 W8        29.66F
$$

ABBREVIATIONS USED IN REMARKS
   TC - TEMPERATURE IN CELSIUS
  WCI - WIND CHILL INDEX
   HX - HEAT INDEX
  VSB - VISIBILITY
$$





USA.gov is the U.S. government's official web portal to all federal, state and local government web resources and services.